1500696000.86,57608,21.06,74242.8,7.63,-27.89,-28.25,0,*7A
1500696002.11,57609,21.06,74240.5,7.63,-27.61,-28.09,0,*73
1500696003.35,57610,21.06,74236.3,7.61,-27.93,-28.31,0,*7F
1500696004.6,57611,21.06,74240.5,7.61,-27.99,-28.37,0,*72
1500696005.83,57612,21.06,74242.0,7.59,-27.99,-28.31,0,*7C
1500696007.05,57613,21.06,74240.0,7.63,-27.93,-28.25,0,*7B
1500696008.3,57614,21.06,74238.3,7.61,-27.99,-28.37,0,*77
1500696009.53,57615,21.06,74238.0,7.63,-27.77,-28.09,0,*79
1500696010.73,57616,21.06,74234.0,7.59,-27.77,-28.15,0,*7E
1500696011.98,57617,21.06,74232.0,7.61,-27.83,-28.15,0,*7F
1500696013.21,57618,21.06,74236.8,7.59,-27.99,-28.37,0,*70
1500696014.46,57619,21.06,74236.8,7.59,-27.83,-28.25,0,*79
1500696015.66,57620,21.06,74238.5,7.59,-27.93,-28.31,0,*77
1500696016.87,57621,21.06,74238.8,7.59,-27.93,-28.31,0,*76
1500696018.11,57622,21.06,74240.0,7.59,-27.99,-28.47,0,*7E
1500696019.32,57623,21.06,74236.5,7.59,-27.93,-28.31,0,*74
1500696020.54,57624,21.06,74242.3,7.59,-27.67,-28.09,0,*73
1500696021.83,57625,21.06,74240.0,7.61,-27.61,-28.09,0,*7F
1500696023.09,57626,21.06,74242.5,7.59,-27.61,-28.09,0,*77
1500696024.32,57627,21.06,74244.8,7.59,-27.61,-27.93,0,*7A
1500696025.58,57628,21.06,74246.0,7.61,-27.61,-27.93,0,*7E
1500696026.83,57629,21.06,74244.5,7.59,-27.45,-27.83,0,*73
1500696028.08,57630,21.06,74240.0,7.61,-27.61,-27.93,0,*77
1500696029.31,57631,21.06,74244.0,7.61,-27.77,-28.15,0,*70
1500696030.54,57632,21.06,74238.8,7.59,-27.83,-28.15,0,*73
1500696031.79,57633,21.06,74240.8,7.61,-27.83,-28.15,0,*79
1500696033.02,57634,21.06,74242.3,7.59,-27.83,-28.31,0,*73
1500696034.22,57635,21.06,74246.5,7.59,-27.93,-28.31,0,*73
1500696035.48,57636,21.06,74244.8,7.59,-27.99,-28.25,0,*7F
1500696036.73,57637,21.06,74240.8,7.61,-27.83,-28.15,0,*7D
1500696037.98,57638,21.06,74242.5,7.59,-27.83,-28.25,0,*7A
1500696039.23,57639,21.06,74242.3,7.61,-27.99,-28.31,0,*7E
1500696040.46,57640,21.06,74242.3,7.59,-27.99,-28.31,0,*7B
1500696041.71,57641,21.06,74240.3,7.59,-27.99,-28.25,0,*7F
1500696042.94,57642,21.06,74242.8,7.59,-27.77,-28.25,0,*7C
1500696044.17,57643,21.06,74240.5,7.59,-27.77,-28.09,0,*73
1500696045.37,57644,21.06,74238.8,7.59,-27.77,-28.15,0,*79
1500696046.6,57645,21.06,74242.0,7.59,-27.67,-27.99,0,*72
1500696047.82,57646,21.06,74236.5,7.59,-27.83,-28.15,0,*70
1500696049.05,57647,21.06,74238.0,7.59,-27.77,-28.09,0,*77
1500696050.26,57648,21.06,74240.5,7.59,-27.77,-28.15,0,*75
1500696051.53,57649,21.06,74240.8,7.57,-27.99,-28.21,0,*7D
1500696052.78,57650,21.06,74240.5,7.57,-27.83,-28.15,0,*79
1500696054.01,57651,21.06,74242.8,7.59,-27.77,-27.99,0,*76
1500696055.24,57652,21.06,74238.5,7.61,-27.67,-27.93,0,*75
1500696056.44,57653,21.06,74236.3,7.59,-27.77,-28.15,0,*7F
1500696057.67,57654,21.06,74242.5,7.59,-27.83,-28.15,0,*73
1500696058.91,57655,21.06,74238.0,7.57,-27.99,-28.37,0,*77
1500696060.19,57656,21.06,74238.5,7.57,-27.83,-28.21,0,*78
1500696061.44,57657,21.06,74238.8,7.57,-27.55,-27.99,0,*7E
1500696062.69,57658,21.06,74240.3,7.55,-27.39,-28.05,0,*73
1500696063.94,57659,21.06,74242.0,7.57,-27.39,-27.89,0,*7B
1500696065.19,57660,21.06,74240.8,7.57,-27.51,-28.05,0,*74
1500696066.45,57661,21.06,74236.8,7.57,-27.67,-27.99,0,*7A
1500696067.68,57662,21.06,74236.3,7.57,-27.89,-28.15,0,*72
1500696068.93,57663,21.06,74236.0,7.57,-27.83,-28.31,0,*7F
1500696070.16,57664,21.06,74240.5,7.55,-27.71,-28.21,0,*76
1500696071.43,57665,21.06,74238.8,7.57,-27.39,-27.83,0,*7E
1500696072.66,57666,21.06,74242.3,7.55,-27.45,-27.89,0,*7E
1500696073.91,57667,21.06,74238.0,7.57,-27.55,-27.99,0,*7D
1500696075.16,57668,21.06,74242.0,7.57,-27.55,-27.99,0,*72
1500696076.41,57669,21.06,74240.5,7.57,-27.71,-28.05,0,*7F
1500696077.67,57670,21.06,74242.5,7.57,-27.51,-27.99,0,*7F
1500696078.92,57671,21.06,74240.5,7.57,-27.51,-27.99,0,*7E
1500696080.17,57672,21.06,74246.8,7.57,-27.55,-28.05,0,*73
1500696081.39,57673,21.06,74248.5,7.57,-27.51,-27.89,0,*7D
1500696082.64,57674,21.06,74244.5,7.57,-27.39,-27.89,0,*74
1500696083.89,57675,21.06,74240.0,7.57,-27.39,-27.89,0,*75
1500696085.12,57676,21.06,74244.8,7.59,-27.67,-28.09,0,*74
1500696086.35,57677,21.06,74246.0,7.57,-27.71,-28.15,0,*71
1500696087.6,57678,21.06,74244.8,7.57,-27.89,-28.21,0,*7E
1500696088.85,57679,21.06,74244.0,7.57,-27.89,-28.21,0,*7F
1500696090.1,57680,21.06,74240.3,7.59,-27.83,-28.25,0,*79
1500696091.35,57681,21.06,74242.0,7.57,-27.67,-27.99,0,*74
1500696092.6,57682,21.06,74238.0,7.57,-27.55,-27.99,0,*76
1500696093.83,57683,21.06,74236.0,7.57,-27.71,-28.15,0,*7A
1500696095.08,57684,21.06,74236.8,7.57,-27.89,-28.21,0,*7D
1500696096.33,57685,21.06,74238.8,7.57,-28.05,-28.37,0,*70
1500696097.59,57686,21.06,74238.0,7.57,-27.99,-28.31,0,*7F
1500696098.84,57687,21.06,74234.3,7.57,-27.83,-28.15,0,*73
1500696100.07,57688,21.06,74236.3,7.55,-27.71,-28.05,0,*72
1500696101.32,57689,21.06,74236.0,7.57,-27.89,-28.21,0,*70
1500696102.57,57690,21.06,74238.5,7.57,-27.71,-28.05,0,*79
1500696103.82,57691,21.06,74240.3,7.57,-27.71,-27.99,0,*72
1500696105.05,57692,21.06,74238.0,7.59,-27.77,-28.09,0,*7F
1500696106.3,57693,21.06,74240.5,7.57,-27.89,-28.21,0,*7B
1500696107.55,57694,21.06,74240.0,7.57,-27.83,-28.15,0,*71
1500696108.78,57695,21.06,74242.8,7.57,-27.89,-28.15,0,*7A
1500696110.03,57696,21.06,74238.0,7.57,-27.89,-28.21,0,*7E
1500696111.25,57697,21.06,74240.8,7.55,-27.89,-28.43,0,*79
1500696112.48,57698,21.06,74236.0,7.55,-27.89,-28.25,0,*76
1500696113.75,57699,21.06,74236.3,7.55,-27.61,-28.05,0,*73
1500696114.98,57700,21.06,74238.0,7.55,-27.55,-28.05,0,*75
1500696116.21,57701,21.06,74244.3,7.55,-27.77,-28.21,0,*72
1500696117.44,57702,21.06,74244.0,7.55,-27.71,-28.09,0,*7D
1500696118.67,57703,21.06,74242.8,7.55,-27.71,-28.05,0,*70
1500696119.9,57704,21.06,74244.0,7.55,-27.71,-28.09,0,*7B
1500696121.1,57705,21.06,74244.0,7.55,-27.93,-28.37,0,*7B
1500696122.31,57706,21.06,74244.0,7.55,-27.93,-28.37,0,*78
1500696123.54,57707,21.06,74240.3,7.55,-27.93,-28.25,0,*7A
1500696124.77,57708,21.06,74240.3,7.55,-27.93,-28.25,0,*75
1500696125.98,57709,21.06,74242.8,7.55,-27.93,-28.37,0,*77
1500696127.23,57710,21.06,74246.3,7.57,-27.83,-28.31,0,*7A
1500696128.46,57711,21.06,74244.5,7.55,-27.93,-28.25,0,*7D
1500696129.69,57712,21.06,74246.3,7.55,-28.09,-28.37,0,*71
1500696130.92,57713,21.06,74244.8,7.55,-28.05,-28.37,0,*7C
1500696132.17,57714,21.06,74244.0,7.55,-28.21,-28.47,0,*7A
1500696133.38,57715,21.06,74248.0,7.55,-27.89,-28.37,0,*71
1500696134.64,57716,21.06,74244.3,7.53,-27.71,-28.05,0,*72
1500696135.89,57717,21.13,74248.3,7.53,-27.89,-28.25,0,*76
1500696137.15,57718,21.06,74246.0,7.53,-27.93,-28.21,0,*76
1500696138.38,57719,21.06,74240.5,7.51,-27.77,-28.25,0,*7B
1500696139.64,57720,21.06,74240.5,7.53,-27.89,-28.25,0,*72
1500696140.93,57721,21.06,74238.0,7.53,-28.05,-28.25,0,*78
1500696142.19,57722,21.13,74238.3,7.51,-27.61,-28.09,0,*7A
1500696143.44,57723,21.06,74238.8,7.53,-27.71,-28.05,0,*74
1500696144.67,57724,21.06,74236.5,7.55,-27.71,-28.05,0,*75
1500696145.91,57725,21.06,74234.0,7.55,-27.55,-28.05,0,*72
1500696147.13,57726,21.06,74234.0,7.53,-27.55,-27.93,0,*77
1500696148.34,57727,21.06,74236.0,7.51,-27.77,-28.15,0,*75
1500696149.57,57728,21.06,74236.5,7.51,-27.71,-28.05,0,*7D
1500696150.83,57729,21.06,74238.0,7.53,-27.93,-28.21,0,*74
1500696152.08,57730,21.13,74240.5,7.51,-28.05,-28.43,0,*7A
1500696153.35,57731,21.06,74238.8,7.57,-27.83,-28.21,0,*78
1500696154.58,57732,21.06,74236.8,7.55,-27.71,-28.21,0,*74
1500696155.84,57733,21.06,74238.8,7.53,-27.61,-27.93,0,*74
1500696157.1,57734,21.06,74242.5,7.53,-27.77,-28.21,0,*72
1500696158.33,57735,21.06,74242.3,7.51,-27.71,-28.09,0,*7D
1500696159.54,57736,21.13,74244.5,7.51,-27.93,-28.31,0,*79
1500696160.79,57737,21.13,74246.0,7.53,-27.93,-28.25,0,*7F
1500696162.05,57738,21.13,74244.3,7.53,-27.89,-28.21,0,*7F
1500696163.31,57739,21.13,74244.0,7.53,-27.71,-28.05,0,*7F
1500696164.56,57740,21.06,74242.5,7.51,-27.45,-27.83,0,*75
1500696165.82,57741,21.06,74238.5,7.53,-27.45,-27.93,0,*77
1500696167.08,57742,21.13,74242.5,7.53,-27.77,-28.21,0,*73
1500696168.34,57743,21.13,74242.5,7.53,-27.77,-28.05,0,*74
1500696169.54,57744,21.06,74246.3,7.51,-27.93,-28.31,0,*7C
1500696170.75,57745,21.06,74242.8,7.51,-27.93,-28.31,0,*7D
1500696172.04,57746,21.06,74240.0,7.53,-27.61,-28.09,0,*7A
1500696173.24,57747,21.13,74242.8,7.51,-27.67,-28.15,0,*72
1500696174.47,57748,21.13,74242.5,7.51,-27.83,-28.15,0,*77
1500696175.72,57749,21.13,74242.8,7.53,-27.71,-28.09,0,*74
1500696176.98,57750,21.06,74246.3,7.53,-27.77,-28.09,0,*7A
1500696178.21,57751,21.13,74246.8,7.51,-27.99,-28.31,0,*72
1500696179.46,57752,21.13,74242.0,7.53,-27.93,-28.43,0,*7C
1500696180.67,57753,21.13,74242.0,7.51,-27.93,-28.15,0,*7C
1500696181.92,57754,21.13,74238.0,7.51,-27.99,-28.25,0,*72
1500696183.18,57755,21.13,74238.8,7.53,-27.89,-28.21,0,*74
1500696184.43,57756,21.13,74240.0,7.51,-27.83,-28.25,0,*7B
1500696185.68,57757,21.13,74244.0,7.53,-27.93,-28.43,0,*79
1500696186.93,57758,21.13,74242.3,7.51,-28.09,-28.47,0,*7C
1500696188.16,57759,21.06,74242.0,7.51,-27.93,-28.43,0,*75
1500696189.41,57760,21.13,74246.0,7.51,-27.99,-28.25,0,*75
1500696190.64,57761,21.13,74244.5,7.51,-27.67,-28.09,0,*7B
1500696191.84,57762,21.13,74242.5,7.51,-27.51,-27.93,0,*71
1500696193.09,57763,21.13,74242.0,7.53,-27.45,-27.89,0,*7C
1500696194.32,57764,21.13,74244.0,7.51,-27.51,-27.83,0,*76
1500696195.57,57765,21.13,74248.5,7.51,-27.61,-27.83,0,*74
1500696196.83,57766,21.13,74246.5,7.51,-27.61,-27.99,0,*7C
1500696198.1,57767,21.13,74246.5,7.53,-27.61,-27.93,0,*75
1500696199.35,57768,21.13,74244.5,7.51,-27.61,-28.09,0,*74
1500696200.64,57769,21.13,74242.8,7.53,-27.61,-27.99,0,*71
1500696201.9,57770,21.13,74246.0,7.53,-27.45,-27.93,0,*75
1500696203.15,57771,21.13,74244.5,7.53,-27.45,-27.93,0,*74
1500696204.38,57772,21.13,74242.0,7.53,-27.55,-27.89,0,*7D
1500696205.58,57773,21.13,74242.8,7.51,-27.51,-27.93,0,*71
1500696206.81,57774,21.13,74242.0,7.53,-27.55,-27.93,0,*70
1500696208.07,57775,21.13,74238.5,7.53,-27.71,-28.09,0,*7B
1500696209.32,57776,21.13,74242.8,7.53,-27.71,-28.09,0,*78
1500696210.58,57777,21.06,74238.3,7.53,-27.77,-28.21,0,*75
1500696211.87,57778,21.13,74242.0,7.53,-27.61,-28.09,0,*77
1500696213.12,57779,21.13,74240.8,7.53,-27.55,-28.09,0,*71
1500696214.35,57780,21.13,74240.8,7.51,-27.67,-28.09,0,*74
1500696215.61,57781,21.13,74242.0,7.53,-27.77,-28.21,0,*7C
1500696216.87,57782,21.06,74236.0,7.53,-27.77,-28.21,0,*7F
1500696218.07,57783,21.13,74236.0,7.55,-27.77,-28.37,0,*7F
1500696219.32,57784,21.13,74242.3,7.51,-27.83,-28.25,0,*74
1500696220.58,57785,21.13,74240.3,7.53,-27.89,-28.09,0,*73
1500696221.83,57786,21.13,74240.3,7.53,-27.89,-28.25,0,*7E
1500696223.09,57787,21.13,74238.5,7.51,-27.61,-28.09,0,*75
1500696224.35,57788,21.13,74238.0,7.53,-27.77,-28.25,0,*71
1500696225.61,57789,21.13,74240.3,7.53,-27.71,-28.05,0,*74
1500696226.86,57790,21.13,74242.0,7.51,-27.83,-28.25,0,*71
1500696228.07,57791,21.13,74244.8,7.51,-27.93,-28.31,0,*74
1500696229.32,57792,21.13,74244.3,7.53,-27.71,-28.21,0,*78
1500696230.58,57793,21.13,74244.3,7.53,-27.71,-28.05,0,*7F
1500696231.82,57794,21.13,74240.8,7.51,-27.61,-28.15,0,*7A
1500696233.05,57795,21.13,74242.8,7.51,-27.67,-28.09,0,*70
1500696234.28,57796,21.13,74240.5,7.51,-27.93,-28.25,0,*76
1500696235.48,57797,21.13,74244.0,7.51,-27.93,-28.31,0,*72
1500696236.71,57798,21.13,74244.5,7.51,-27.99,-28.31,0,*77
1500696237.94,57799,21.13,74244.3,7.51,-28.09,-28.31,0,*70
1500696239.2,57800,21.13,74246.3,7.51,-27.61,-28.09,0,*75
1500696240.43,57801,21.13,74246.3,7.51,-27.67,-28.09,0,*72
1500696241.66,57802,21.13,74250.8,7.51,-27.83,-28.15,0,*76
1500696242.91,57803,21.13,74250.3,7.53,-27.35,-27.77,0,*73
1500696244.16,57804,21.13,74250.0,7.53,-27.45,-27.89,0,*72
1500696245.37,57805,21.13,74248.5,7.51,-27.67,-28.15,0,*7B
1500696246.62,57806,21.13,74246.5,7.51,-28.09,-28.47,0,*78
1500696247.85,57807,21.13,74250.3,7.51,-27.93,-28.25,0,*71
1500696249.08,57808,21.13,74246.0,7.51,-27.67,-28.09,0,*7B
1500696250.34,57809,21.13,74244.8,7.51,-27.61,-28.09,0,*7C
1500696251.57,57810,21.13,74246.5,7.51,-27.67,-27.99,0,*74
1500696252.79,57811,21.13,74246.5,7.53,-27.55,-27.93,0,*7C
1500696254.05,57812,21.13,74246.0,7.53,-27.45,-27.89,0,*75
1500696255.31,57813,21.13,74240.3,7.53,-27.61,-27.93,0,*79
1500696256.57,57814,21.13,74240.3,7.51,-27.61,-27.99,0,*76
1500696257.83,57815,21.13,74240.3,7.53,-27.71,-28.09,0,*72
1500696259.06,57816,21.13,74242.5,7.55,-27.77,-28.25,0,*7F
1500696260.32,57817,21.13,74244.8,7.53,-27.71,-28.05,0,*7C
1500696261.56,57818,21.13,74246.0,7.51,-27.61,-28.15,0,*71
1500696262.82,57819,21.13,74246.3,7.53,-27.93,-28.25,0,*7C
1500696264.07,57820,21.13,74246.8,7.53,-27.89,-28.21,0,*79
1500696265.33,57821,21.13,74246.3,7.53,-27.55,-28.05,0,*7F
1500696266.54,57822,21.13,74248.0,7.51,-27.77,-28.15,0,*7F
1500696267.76,57823,21.13,74246.5,7.51,-27.83,-28.31,0,*73
1500696268.99,57824,21.13,74246.0,7.51,-27.93,-28.25,0,*70
1500696270.25,57825,21.13,74250.0,7.53,-27.89,-28.25,0,*78
1500696271.51,57826,21.13,74246.8,7.53,-27.89,-28.21,0,*7F
1500696272.73,57827,21.13,74246.5,7.51,-27.77,-28.09,0,*77
1500696273.96,57828,21.13,74244.0,7.51,-27.83,-28.31,0,*78
1500696275.21,57829,21.13,74246.5,7.51,-27.99,-28.43,0,*77
1500696276.46,57830,21.13,74246.3,7.51,-27.83,-28.25,0,*74
1500696277.68,57831,21.13,74244.8,7.51,-27.93,-28.43,0,*74
1500696278.91,57832,21.13,74244.5,7.53,-27.93,-28.37,0,*76
1500696280.16,57833,21.13,74244.8,7.51,-27.99,-28.43,0,*7C
1500696281.37,57834,21.13,74244.3,7.51,-27.93,-28.31,0,*74
1500696282.57,57835,21.13,74244.0,7.51,-27.93,-28.31,0,*75
1500696283.83,57836,21.13,74244.3,7.53,-27.77,-28.21,0,*7F
1500696285.06,57837,21.13,74246.3,7.51,-27.99,-28.31,0,*7D
1500696286.27,57838,21.13,74246.8,7.51,-27.93,-28.31,0,*78
1500696287.5,57839,21.13,74246.8,7.51,-27.99,-28.31,0,*73
1500696288.75,57840,21.13,74246.3,7.49,-27.99,-28.31,0,*74
1500696290.01,57841,21.13,74252.0,7.49,-27.83,-28.15,0,*78
1500696291.26,57842,21.13,74252.3,7.49,-27.71,-28.21,0,*71
1500696292.49,57843,21.13,74250.5,7.49,-27.71,-28.15,0,*77
1500696293.74,57844,21.13,74244.8,7.49,-27.35,-27.71,0,*7D
1500696295.02,57845,21.13,74248.3,7.49,-27.45,-27.83,0,*76
1500696296.28,57846,21.13,74250.3,7.53,-27.61,-27.93,0,*79
1500696297.54,57847,21.13,74250.3,7.49,-27.71,-28.05,0,*72
1500696298.79,57848,21.13,74246.5,7.49,-27.67,-28.05,0,*7A
1500696300.02,57849,21.13,74248.8,7.51,-27.51,-27.83,0,*76
1500696301.25,57850,21.13,74248.3,7.51,-27.67,-28.09,0,*76
1500696302.47,57851,21.13,74242.3,7.51,-27.83,-28.15,0,*70
1500696303.73,57852,21.13,74244.0,7.49,-27.89,-28.21,0,*77
1500696304.95,57853,21.13,74240.8,7.51,-27.83,-28.15,0,*72
1500696306.2,57854,21.13,74240.0,7.51,-27.83,-28.25,0,*76
1500696307.45,57855,21.13,74242.3,7.51,-27.83,-28.25,0,*77
1500696308.66,57856,21.13,74246.0,7.51,-27.93,-28.31,0,*70
1500696309.89,57857,21.13,74246.5,7.51,-27.99,-28.31,0,*7B
1500696311.09,57858,21.13,74250.3,7.51,-27.93,-28.31,0,*7E
1500696312.35,57859,21.13,74252.0,7.49,-27.71,-28.05,0,*7D
1500696313.6,57860,21.13,74252.8,7.49,-27.51,-27.99,0,*7F
1500696314.86,57861,21.13,74250.5,7.49,-27.55,-28.05,0,*70
1500696316.11,57862,21.13,74254.3,7.49,-27.71,-28.21,0,*73
1500696317.34,57863,21.13,74248.8,7.51,-27.67,-28.09,0,*76
1500696318.6,57864,21.13,74246.8,7.49,-27.67,-28.05,0,*74
1500696319.83,57865,21.13,74246.0,7.49,-27.67,-28.15,0,*74
1500696321.04,57866,21.13,74248.5,7.51,-27.67,-28.15,0,*7E
1500696322.25,57867,21.13,74250.0,7.51,-27.93,-28.31,0,*72
1500696323.49,57868,21.13,74248.3,7.51,-27.99,-28.47,0,*76
1500696324.74,57869,21.13,74252.5,7.51,-27.99,-28.47,0,*77
1500696326.02,57870,21.13,74250.5,7.49,-28.05,-28.47,0,*7C
1500696327.3,57871,21.13,74248.5,7.49,-28.05,-28.47,0,*7D
1500696328.57,57872,21.13,74246.5,7.49,-27.99,-28.47,0,*74
1500696329.8,57873,21.13,74250.5,7.49,-27.89,-28.37,0,*73
1500696331.05,57874,21.13,74252.5,7.49,-27.99,-28.37,0,*75
1500696332.3,57875,21.13,74254.3,7.49,-28.05,-28.37,0,*7E
1500696333.56,57876,21.13,74252.3,7.49,-27.83,-28.31,0,*7A
1500696334.81,57877,21.13,74252.0,7.49,-27.71,-28.05,0,*71
1500696336.07,57878,21.13,74248.3,7.49,-27.45,-27.89,0,*72
1500696337.29,57879,21.13,74250.0,7.51,-27.51,-27.99,0,*7E
1500696338.55,57880,21.13,74250.0,7.49,-27.71,-28.05,0,*79
1500696339.8,57881,21.13,74244.0,7.49,-27.71,-28.05,0,*78
1500696341.05,57882,21.13,74244.8,7.47,-28.05,-28.37,0,*78
1500696342.3,57883,21.13,74250.5,7.49,-28.15,-28.47,0,*71
1500696343.55,57884,21.13,74246.0,7.49,-28.15,-28.47,0,*76
1500696344.8,57885,21.13,74246.3,7.49,-27.99,-28.37,0,*7B
1500696346.06,57886,21.13,74246.5,7.49,-28.05,-28.37,0,*72
1500696347.3,57887,21.13,74246.0,7.47,-28.15,-28.47,0,*7B
1500696348.52,57888,21.13,74246.3,7.47,-28.15,-28.53,0,*71
1500696349.79,57889,21.13,74246.5,7.47,-27.99,-28.47,0,*7E
1500696351.02,57890,21.13,74246.0,7.49,-27.89,-28.37,0,*7E
1500696352.27,57891,21.19,74244.5,7.47,-27.67,-28.05,0,*70
1500696353.52,57892,21.13,74244.8,7.49,-27.99,-28.37,0,*7D
1500696354.79,57893,21.13,74240.0,7.47,-27.99,-28.47,0,*75
1500696356.04,57894,21.19,74244.5,7.47,-27.83,-28.15,0,*7E
1500696357.26,57895,21.19,74246.3,7.47,-27.89,-28.31,0,*73
1500696358.49,57896,21.13,74240.8,7.47,-27.89,-28.31,0,*70
1500696359.75,57897,21.13,74242.8,7.49,-27.99,-28.31,0,*7E
1500696361.02,57898,21.13,74244.0,7.47,-28.05,-28.47,0,*74
1500696362.27,57899,21.19,74244.5,7.47,-27.99,-28.37,0,*78
1500696363.54,57900,21.19,74248.5,7.47,-27.83,-28.21,0,*75
1500696364.77,57901,21.19,74250.3,7.49,-27.71,-28.15,0,*70
1500696366.02,57902,21.13,74240.5,7.49,-27.71,-28.21,0,*74
1500696367.25,57903,21.19,74242.0,7.47,-27.67,-28.15,0,*7B
1500696368.53,57904,21.13,74242.3,7.47,-27.83,-28.21,0,*71
1500696369.76,57905,21.19,74244.5,7.47,-27.67,-28.15,0,*7D
1500696370.98,57906,21.13,74244.5,7.47,-27.71,-28.15,0,*79
1500696372.23,57907,21.19,74244.5,7.47,-27.83,-28.31,0,*73
1500696373.5,57908,21.19,74248.3,7.47,-27.83,-28.21,0,*7D
1500696374.78,57909,21.19,74246.5,7.49,-27.99,-28.21,0,*79
1500696376.03,57910,21.19,74248.0,7.49,-27.83,-28.15,0,*7D
1500696377.26,57911,21.19,74248.8,7.47,-27.51,-27.89,0,*77
1500696378.51,57912,21.19,74250.8,7.47,-27.55,-27.99,0,*71
1500696379.76,57913,21.19,74250.3,7.49,-27.03,-27.35,0,*7B
1500696381.03,57914,21.13,74244.8,7.49,-27.19,-27.45,0,*70
1500696382.27,57915,21.19,74244.5,7.47,-27.35,-27.71,0,*76
1500696383.52,57916,21.19,74246.3,7.49,-27.51,-27.99,0,*7F
1500696384.78,57917,21.19,74242.3,7.49,-27.55,-27.99,0,*7A
1500696386.03,57918,21.19,74240.8,7.47,-27.71,-28.05,0,*77
1500696387.26,57919,21.19,74246.3,7.49,-27.89,-28.31,0,*78
1500696388.49,57920,21.19,74246.5,7.49,-27.89,-28.37,0,*74
1500696389.73,57921,21.19,74242.5,7.47,-27.55,-28.05,0,*7B
1500696390.97,57922,21.19,74246.0,7.49,-27.71,-28.15,0,*71
1500696392.2,57923,21.19,74244.5,7.49,-27.67,-28.15,0,*77
1500696393.46,57924,21.19,74246.8,7.49,-27.67,-28.05,0,*71
1500696394.71,57925,21.19,74244.3,7.49,-27.71,-28.21,0,*71
1500696395.95,57926,21.19,74246.3,7.49,-27.71,-28.15,0,*75
1500696397.2,57927,21.19,74244.5,7.49,-27.89,-28.21,0,*74
1500696398.46,57928,21.19,74250.3,7.49,-27.67,-28.05,0,*7D
1500696399.72,57929,21.19,74246.8,7.49,-27.67,-28.05,0,*7C
1500696400.93,57930,21.19,74250.5,7.51,-27.67,-28.15,0,*7C
1500696402.13,57931,21.19,74252.8,7.51,-27.67,-28.15,0,*7D
1500696403.37,57932,21.19,74250.0,7.49,-27.71,-28.15,0,*70
1500696404.62,57933,21.19,74248.8,7.49,-27.83,-28.15,0,*7C
1500696405.87,57934,21.19,74250.0,7.51,-27.83,-28.25,0,*71
1500696407.12,57935,21.19,74248.5,7.51,-27.99,-28.25,0,*7B
1500696408.35,57936,21.19,74248.0,7.49,-27.89,-28.31,0,*75
1500696409.57,57937,21.19,74248.8,7.47,-27.89,-28.37,0,*7C
1500696410.82,57938,21.19,74252.8,7.49,-27.99,-28.37,0,*7C
1500696412.08,57939,21.19,74254.8,7.49,-27.67,-28.21,0,*7B
1500696413.34,57940,21.19,74250.8,7.49,-27.55,-28.05,0,*72
1500696414.59,57941,21.19,74250.0,7.49,-27.71,-28.21,0,*73
1500696415.87,57942,21.19,74244.3,7.49,-27.83,-28.21,0,*7D
1500696417.15,57943,21.19,74246.3,7.49,-27.83,-28.21,0,*7C
1500696418.4,57944,21.19,74244.8,7.49,-28.05,-28.37,0,*7D
1500696419.65,57945,21.19,74244.8,7.49,-27.55,-27.99,0,*7D
1500696420.91,57946,21.19,74244.0,7.49,-27.55,-28.05,0,*74
1500696422.14,57947,21.19,74244.0,7.51,-27.61,-27.93,0,*7B
1500696423.34,57948,21.19,74244.3,7.51,-27.51,-27.93,0,*77
1500696424.57,57949,21.19,74240.3,7.51,-26.97,-27.13,0,*75
1500696425.8,57950,21.19,74246.0,7.51,-26.81,-27.07,0,*7F
1500696427.06,57951,21.19,74234.8,7.53,-27.07,-27.23,0,*75
1500696428.31,57952,21.19,74238.5,7.51,-27.23,-27.61,0,*74
1500696429.56,57953,21.19,74236.0,7.53,-27.35,-27.77,0,*77
1500696430.82,57954,21.19,74242.8,7.51,-27.61,-27.99,0,*73
1500696432.05,57955,21.19,74236.5,7.53,-27.55,-27.89,0,*76
1500696433.3,57956,21.19,74236.3,7.53,-27.71,-28.09,0,*74
1500696434.56,57957,21.19,74238.8,7.53,-27.77,-28.21,0,*79
1500696435.79,57958,21.19,74238.0,7.51,-27.93,-28.25,0,*7A
1500696437.05,57959,21.19,74240.0,7.53,-27.71,-28.09,0,*7B
1500696438.31,57960,21.19,74242.8,7.51,-27.61,-28.09,0,*72
1500696439.53,57961,21.19,74242.5,7.51,-27.83,-28.31,0,*74
1500696440.79,57962,21.19,74242.8,7.53,-27.93,-28.25,0,*71
1500696442.02,57963,21.19,74244.0,7.51,-27.99,-28.31,0,*7D
1500696443.28,57964,21.19,74244.0,7.53,-27.89,-28.25,0,*7C
1500696444.54,57965,21.19,74246.0,7.53,-27.77,-28.21,0,*78
1500696445.8,57966,21.19,74246.3,7.51,-27.61,-28.09,0,*74
1500696447.02,57967,21.19,74246.8,7.51,-27.77,-28.09,0,*72
1500696448.25,57968,21.19,74244.0,7.51,-27.71,-28.09,0,*7B
1500696449.51,57969,21.19,74246.8,7.53,-27.77,-28.25,0,*70
1500696450.74,57970,21.19,74244.5,7.51,-27.93,-28.25,0,*70
1500696451.96,57971,21.19,74244.8,7.51,-27.77,-28.09,0,*75
1500696453.19,57972,21.19,74244.5,7.51,-27.83,-28.31,0,*76
1500696454.44,57973,21.19,74246.3,7.51,-27.99,-28.43,0,*79
1500696455.69,57974,21.19,74244.8,7.51,-27.99,-28.25,0,*7E
1500696456.92,57975,21.19,74244.3,7.51,-27.83,-28.31,0,*71
1500696458.16,57976,21.19,74246.8,7.51,-27.99,-28.47,0,*78
1500696459.39,57977,21.19,74244.0,7.51,-27.99,-28.31,0,*78
1500696460.62,57978,21.19,74244.3,7.51,-27.77,-28.25,0,*72
1500696461.85,57979,21.19,74244.5,7.47,-27.89,-28.31,0,*70
1500696463.08,57980,21.19,74244.0,7.49,-27.71,-28.15,0,*79
1500696464.33,57981,21.19,74244.5,7.49,-27.89,-28.21,0,*78
1500696465.54,57982,21.19,74246.8,7.51,-27.77,-28.15,0,*74
1500696466.79,57983,21.19,74244.8,7.49,-27.89,-28.21,0,*7A
1500696468.04,57984,21.19,74246.0,7.47,-28.05,-28.37,0,*7F
1500696469.32,57985,21.19,74246.8,7.49,-27.83,-28.21,0,*76
1500696470.58,57986,21.19,74244.5,7.49,-27.99,-28.31,0,*7F
1500696471.83,57987,21.19,74244.5,7.49,-27.99,-28.37,0,*78
1500696473.08,57988,21.19,74246.3,7.49,-27.99,-28.15,0,*77
1500696474.34,57989,21.19,74244.3,7.47,-27.99,-28.31,0,*7E
1500696475.57,57990,21.19,74246.5,7.49,-27.71,-28.15,0,*78
1500696476.82,57991,21.19,74244.8,7.49,-27.89,-28.21,0,*79
1500696478.07,57992,21.19,74242.3,7.49,-27.99,-28.37,0,*7C
1500696479.33,57993,21.19,74236.8,7.49,-28.05,-28.37,0,*77
1500696480.58,57994,21.19,74240.3,7.49,-27.99,-28.31,0,*7C
1500696481.84,57995,21.25,74242.3,7.49,-27.83,-28.15,0,*70
1500696483.07,57996,21.19,74238.3,7.49,-27.71,-28.15,0,*7E
1500696484.29,57997,21.19,74242.3,7.47,-27.71,-28.15,0,*71
1500696485.52,57998,21.19,74236.8,7.49,-27.89,-28.31,0,*71
1500696486.77,57999,21.19,74240.0,7.47,-27.89,-28.21,0,*7F
1500696488.0,58000,21.19,74240.8,7.49,-27.89,-28.37,0,*70
1500696489.25,58001,21.19,74240.8,7.47,-27.71,-28.21,0,*7F
1500696490.48,58002,21.19,74242.8,7.47,-27.67,-28.15,0,*7C
1500696491.73,58003,21.19,74240.0,7.49,-27.55,-28.05,0,*73
1500696492.97,58004,21.19,74244.3,7.49,-27.71,-28.31,0,*75
1500696494.21,58005,21.19,74240.8,7.47,-27.83,-28.15,0,*71
1500696495.45,58006,21.19,74244.8,7.49,-27.55,-28.15,0,*77
1500696496.67,58007,21.19,74242.8,7.47,-27.71,-28.15,0,*7E
1500696497.93,58008,21.19,74242.8,7.49,-27.71,-28.21,0,*78
1500696499.18,58009,21.19,74240.5,7.47,-27.51,-27.99,0,*79
1500696500.43,58010,21.19,74242.3,7.47,-27.67,-28.05,0,*7E
1500696501.69,58011,21.19,74246.0,7.49,-27.55,-27.99,0,*7A
1500696502.94,58012,21.19,74246.3,7.49,-27.55,-28.05,0,*73
1500696504.19,58013,21.19,74246.8,7.49,-27.71,-28.21,0,*72
1500696505.45,58014,21.19,74244.3,7.49,-27.55,-27.99,0,*7F